Weather History for Fairbanks, AK

Change the Weather History Date:

Friday, November 2, 2012

  Actual Average Record
Temperature  
Mean Temperature 2 °F 10 °F  
Max Temperature 19 °F 18 °F 48 °F (1926)
Min Temperature -16 °F 2 °F -33 °F (1907)
Degree Days  
Heating Degree Days 63 55  
Month to date heating degree days 125 109  
Since 1 July heating degree days 2410 2368  
Cooling Degree Days 0 0  
Month to date cooling degree days 0 0  
Year to date cooling degree days 34 61  
Moisture  
Dew Point -6 °F    
Average Humidity 75    
Maximum Humidity 84    
Minimum Humidity 55    
Precipitation  
Precipitation T in 0.03 in 0.47 in (1925)
Month to date precipitation T 0.05  
Year to date precipitation 9.14 9.55  
Snow  
Snow 0.00 in 0.50 in 5.50 in (1925)
Month to date snowfall 0.0 0.9  
Since 1 July snowfall 7.1 13.5  
Since 1 September snowfall 7.1 13.5  
Snow Depth 4.00 in    
Sea Level Pressure  
Sea Level Pressure 29.84 in    
Wind  
Wind Speed 1 mph (NE)    
Max Wind Speed 12 mph    
Max Gust Speed -    
Visibility 10 miles    
Events Snow    
T = Trace of Precipitation, MM = Missing Value Source: NWS Daily Summary

Daily Weather History Graph

Daily Weather History Graph

Search for Another Location

Airport:

Trip Planner

Search our weather history database for the weather conditions in past years. The results will help you decide how hot, cold, wet, or windy it might be!

Date:

Astronomy

Nov. 02, 2012 Rise Set
Actual Time 9:44 AM AKDT 5:24 PM AKDT
Civil Twilight 8:48 AM AKDT 6:20 PM AKDT
Nautical Twilight 7:49 AM AKDT 7:18 PM AKDT
Astronomical Twilight 6:53 AM AKDT 8:15 PM AKDT
Moon 7:20 PM AKDT (11/2) 2:13 PM AKDT (11/2)
Length of Visible Light 9h 31m
Length of Day
7h 39m
Waning Gibbous, 86% of the Moon is Illuminated
Nov 2
Waning Gibbous
Nov 6
Last Quarter
Nov 13
New
Nov 20
First Quarter
Nov 28
Full

Hourly Weather History & Observations

Time (AKDT) Temp. Windchill Dew Point Humidity Pressure Visibility Wind Dir Wind Speed Gust Speed Precip Events Conditions
12:53 AM -9.9 °F - -15.0 °F 78% 30.10 in 10.0 mi Calm Calm - N/A   Partly Cloudy
1:53 AM -11.0 °F - -17.0 °F 75% 30.09 in 10.0 mi Calm Calm - N/A   Partly Cloudy
2:53 AM -9.0 °F - -14.1 °F 79% 30.06 in 10.0 mi Calm Calm - N/A   Partly Cloudy
3:53 AM -9.9 °F - -15.0 °F 78% 30.04 in 10.0 mi Calm Calm - N/A   Partly Cloudy
4:53 AM -11.0 °F - -17.0 °F 75% 30.01 in 10.0 mi Calm Calm - N/A   Partly Cloudy
5:53 AM -13.0 °F - -17.0 °F 82% 29.99 in 10.0 mi Calm Calm - N/A   Partly Cloudy
6:53 AM -14.1 °F - -18.9 °F 79% 29.96 in 10.0 mi Calm Calm - N/A   Partly Cloudy
7:53 AM -13.0 °F - -17.0 °F 82% 29.94 in 10.0 mi Calm Calm - N/A   Partly Cloudy
8:53 AM -11.9 °F -21.5 °F -17.0 °F 78% 29.91 in 10.0 mi NNE 3.5 mph - N/A   Partly Cloudy
9:53 AM -9.0 °F - -14.1 °F 79% 29.88 in 10.0 mi Calm Calm - N/A   Partly Cloudy
10:53 AM -7.1 °F -21.4 °F -11.9 °F 79% 29.86 in 10.0 mi NE 6.9 mph - N/A   Scattered Clouds
11:53 AM -7.1 °F -15.9 °F -11.0 °F 83% 29.84 in 10.0 mi SSE 3.5 mph - N/A   Scattered Clouds
12:53 PM -6.0 °F - -11.0 °F 79% 29.81 in 10.0 mi Calm Calm - N/A   Mostly Cloudy
1:53 PM -2.9 °F - -8.0 °F 79% 29.78 in 10.0 mi Calm Calm - N/A   Mostly Cloudy
2:53 PM 1.9 °F - -2.9 °F 80% 29.75 in 10.0 mi Calm Calm - N/A   Mostly Cloudy
3:53 PM 3.9 °F - -0.0 °F 84% 29.73 in 10.0 mi Calm Calm - N/A   Mostly Cloudy
4:53 PM 6.1 °F -2.8 °F 1.0 °F 80% 29.71 in 10.0 mi NNE 4.6 mph - N/A   Mostly Cloudy
5:53 PM 9.0 °F - 3.0 °F 77% 29.71 in 10.0 mi Calm Calm - N/A   Mostly Cloudy
6:53 PM 12.0 °F - 6.1 °F 77% 29.70 in 10.0 mi Calm Calm - N/A   Mostly Cloudy
7:53 PM 14.0 °F 5.1 °F 6.1 °F 71% 29.69 in 10.0 mi North 5.8 mph - N/A   Overcast
8:53 PM 18.0 °F 5.4 °F 9.0 °F 68% 29.68 in 10.0 mi NNE 11.5 mph - N/A   Overcast
9:53 PM 18.0 °F 11.1 °F 9.0 °F 68% 29.67 in 10.0 mi NE 4.6 mph - N/A   Overcast
10:53 PM 17.1 °F 10.0 °F 8.1 °F 68% 29.66 in 10.0 mi NE 4.6 mph - N/A   Overcast
11:53 PM 19.0 °F 7.5 °F 8.1 °F 62% 29.66 in 10.0 mi NNE 10.4 mph - N/A Snow Light Snow